www.pogodaiklimat.ru

Погода и климат >> Архив погоды >> Австралия >> Port Augusta Arid Lands


ПОГОДА в Port Augusta Arid Lands

  • Прогноз погоды в Port Augusta Arid Lands
  • Монитор погоды в Port Augusta Arid Lands
  • Климат города

АРХИВ ПОГОДЫ в Port Augusta Arid Lands

Время (UTC), дата Ветер
(напр.,м/с)
 
Видим.   Явления Облачность Т
(С)
Тd
(С)
f
(%)
Тe
(С)
Тes
(С)
Комфортность P
(гПа)
Po
(гПа)
Тmin
(С)
Tmax
(С)
R
(мм)
R24
(мм)
S
(см)
22 10.11 В 2 н/о н/о +23.4 +5.8 32 +24 +24 комфорт 1017.7 1016.0
23 10.11 С 2 н/о н/о +25.6 +1.7 21 +24 +24 комфорт 1017.7 1016.0
00 11.11 С 5 н/о н/о +29.5 -0.8 14 +27 +27 жарко 1017.4 1015.7
02 11.11 С 6 н/о н/о +31.6 -6.6 8 +28 +28 жарко 1016.2 1014.5
01 11.11 С 6 н/о н/о +30.5 -3.3 11 +27 +27 жарко 1017.2 1015.5
03 11.11 С 6 н/о н/о +33.0 -5.6 8 +29 +29 жарко 1015.3 1013.6
04 11.11 СЗ 4 н/о н/о +33.3 -5.4 8 +29 +29 жарко 1014.3 1012.6
05 11.11 С 6 н/о н/о +33.7 -6.8 7 +29 +29 жарко 1013.6 1011.9
06 11.11 С 5 н/о н/о +34.4 -6.3 7 +30 +30 жарко 1012.7 1011.0
08 11.11 С 6 н/о н/о +32.4 -7.8 7 +28 +28 жарко 1012.3 1010.6
07 11.11 С 5 н/о н/о +33.3 -7.1 7 +29 +29 жарко 1012.3 1010.6
09 11.11 СЗ 6 н/о н/о +31.3 -8.6 7 +27 +27 жарко 1012.8 1011.1
10 11.11 СЗ 3 н/о н/о +27.6 -8.1 9 +24 +24 комфорт 1013.2 1011.5
11 11.11 СЗ 3 н/о н/о +26.2 -7.8 10 +23 +23 комфорт 1013.8 1012.1
12 11.11 штиль 0 н/о н/о +25.4 -7.2 11 +23 +23 комфорт 1014.2 1012.5
14 11.11 СЗ 2 н/о н/о +24.1 -3.3 16 +22 +22 комфорт 1013.6 1011.9
13 11.11 СВ 1 н/о н/о +25.1 -4.2 14 +23 +23 комфорт 1013.8 1012.1
15 11.11 ЮЗ 3 н/о н/о +22.7 -3.6 17 +21 +21 комфорт 1013.1 1011.4
16 11.11 З 3 н/о н/о +21.4 -3.1 19 +21 +21 комфорт 1012.4 1010.7
17 11.11 СЗ 2 н/о н/о +22.2 -3.2 18 +21 +21 комфорт 1011.9 1010.2
18 11.11 З 4 н/о н/о +23.4 -3.0 17 +22 +22 комфорт 1011.9 1010.2
20 11.11 З 3 н/о н/о +22.1 -1.9 20 +21 +21 комфорт 1012.1 1010.4
19 11.11 З 3 н/о н/о +21.7 -2.9 19 +21 +21 комфорт 1011.8 1010.1
21 11.11 ЮЗ 2 н/о н/о +24.1 -1.7 18 +23 +23 комфорт 1012.5 1010.8
22 11.11 СЗ 3 н/о н/о +26.8 -2.9 14 +24 +24 комфорт 1013.1 1011.4
23 11.11 В 3 н/о н/о +29.1 -1.1 14 +26 +26 жарко 1013.2 1011.5
00 12.11 С 8 н/о н/о +31.6 -6.6 8 +28 +28 жарко 1013.0 1011.3
02 12.11 С 9 н/о н/о +34.0 -6.6 7 +30 +30 жарко 1011.4 1009.7
01 12.11 С 9 н/о н/о +32.9 -5.7 8 +29 +29 жарко 1012.2 1010.5
03 12.11 С 8 н/о н/о +34.4 -8.3 6 +30 +30 жарко 1010.7 1009.0
04 12.11 С 7 н/о н/о +35.0 -7.9 6 +31 +31 жарко 1009.7 1008.0
05 12.11 СЗ 5 н/о н/о +36.9 -6.5 6 +33 +33 жарко 1008.8 1007.1
06 12.11 С 5 н/о н/о +34.7 -8.1 6 +30 +30 жарко 1008.4 1006.7
08 12.11 ЮЗ 6 н/о н/о +33.2 -7.2 7 +29 +29 жарко 1008.4 1006.7
07 12.11 С 4 н/о н/о +34.4 -6.3 7 +30 +30 жарко 1008.5 1006.8
09 12.11 В 10 н/о н/о +24.6 +1.1 21 +28 +28 душно 1009.4 1007.7
10 12.11 ЮВ 8 н/о н/о +25.1 +13.6 49 +27 +27 жарко 1009.4 1007.7
11 12.11 ЮВ 8 н/о н/о +26.2 +10.8 38 +27 +27 жарко 1009.1 1007.4
12 12.11 В 5 н/о н/о +26.2 +9.5 35 +27 +27 жарко 1009.1 1007.4
14 12.11 ЮВ 1 н/о н/о +23.6 +7.7 36 +24 +24 комфорт 1008.6 1006.9
13 12.11 В 3 н/о н/о +25.8 +8.8 34 +26 +26 жарко 1008.9 1007.2
15 12.11 З 3 н/о н/о +22.9 +7.1 36 +24 +24 комфорт 1008.2 1006.5
16 12.11 штиль 0 н/о н/о +22.1 +7.1 38 +23 +23 комфорт 1007.1 1005.4
17 12.11 С 1 н/о н/о +21.9 +7.0 38 +23 +23 комфорт 1006.7 1005.0
18 12.11 З 2 н/о н/о +21.2 +6.3 38 +22 +22 комфорт 1006.6 1004.9
20 12.11 ЮЗ 2 н/о н/о +24.6 +9.0 37 +25 +25 комфорт 1008.5 1006.8
19 12.11 З 8 н/о н/о +25.9 +5.5 27 +25 +25 комфорт 1007.8 1006.1
21 12.11 Ю 7 н/о н/о +23.5 +11.9 48 +25 +25 комфорт 1009.8 1008.1
22 12.11 ЮВ 6 н/о н/о +23.7 +13.6 53 +26 +26 жарко 1010.4 1008.7
23 12.11 ЮВ 8 н/о н/о +21.1 +15.6 71 +24 +24 комфорт 1009.9 1008.2
00 13.11 ЮВ 4 н/о н/о +20.8 +17.0 79 +25 +25 комфорт 1011.4 1009.7
02 13.11 ЮВ 3 н/о н/о +25.9 +12.0 42 +27 +27 жарко 1011.1 1009.4
01 13.11 ЮВ 4 н/о н/о +22.8 +15.9 65 +27 +27 душно 1011.1 1009.4
03 13.11 ЮЗ 3 н/о н/о +28.1 +10.8 34 +29 +29 жарко 1010.3 1008.6
04 13.11 ЮВ 6 н/о н/о +29.6 +11.2 32 +30 +30 жарко 1009.7 1008.0
05 13.11 ЮВ 12 н/о н/о +24.3 +15.2 57 +27 +27 жарко 1009.2 1007.5
06 13.11 ЮВ 11 н/о н/о +24.4 +15.3 57 +27 +27 жарко 1009.2 1007.5
08 13.11 ЮВ 11 н/о н/о +22.4 +15.5 65 +26 +26 жарко 1010.5 1008.8
07 13.11 ЮВ 11 н/о н/о +25.6 +13.8 48 +28 +28 жарко 1010.0 1008.3
09 13.11 ЮВ 10 н/о н/о +20.6 +15.2 71 +23 +23 комфорт 1011.5 1009.8
10 13.11 Ю 9 н/о н/о +19.0 +14.3 74 +19 +19 1012.8 1011.1
11 13.11 Ю 9 н/о н/о +18.0 +13.7 76 +17 +17 1013.7 1012.0
12 13.11 Ю 7 н/о н/о +17.7 +13.2 75 +17 +17 1015.1 1013.4
14 13.11 ЮВ 7 н/о н/о +17.6 +12.7 73 +17 +17 1015.1 1013.4
13 13.11 Ю 8 н/о н/о +17.6 +12.7 73 +17 +17 1015.2 1013.5
15 13.11 Ю 8 н/о н/о +17.8 +12.5 71 +17 +17 1014.9 1013.2
16 13.11 Ю 6 н/о н/о +18.0 +12.7 71 +18 +18 1014.2 1012.5
17 13.11 ЮВ 5 н/о н/о +17.0 +12.7 76 +16 +16 1014.5 1012.8
18 13.11 ЮВ 6 н/о н/о +17.5 +13.6 78 +17 +17 1014.8 1013.1
20 13.11 ЮВ 6 н/о н/о +17.7 +13.4 76 +17 +17 1016.1 1014.4
19 13.11 Ю 7 н/о н/о +17.5 +13.2 76 +17 +17 1015.2 1013.5
21 13.11 ЮВ 7 н/о н/о +18.3 +12.5 69 +18 +18 1016.7 1015.0
22 13.11 ЮВ 8 н/о н/о +18.3 +11.8 66 +18 +18 1017.3 1015.6
23 13.11 ЮВ 6 н/о н/о +20.4 +11.3 56 +22 +22 комфорт 1017.7 1016.0
00 14.11 ЮВ 8 н/о н/о +21.6 +11.6 53 +24 +24 комфорт 1017.5 1015.8
02 14.11 ЮВ 9 н/о н/о +22.3 +11.4 50 +24 +24 комфорт 1017.8 1016.1
01 14.11 ЮВ 9 н/о н/о +22.4 +11.2 49 +25 +25 комфорт 1017.8 1016.1
03 14.11 ЮВ 8 н/о н/о +22.7 +11.1 48 +25 +25 комфорт 1017.3 1015.6
04 14.11 ЮВ 11 н/о н/о +24.3 +10.9 43 +26 +26 жарко 1017.2 1015.5
05 14.11 ЮВ 11 н/о н/о +23.3 +11.7 48 +26 +26 жарко 1017.3 1015.6
06 14.11 ЮВ 12 н/о н/о +22.1 +10.6 48 +24 +24 комфорт 1017.3 1015.6
08 14.11 ЮВ 11 н/о н/о +22.4 +9.9 45 +24 +24 комфорт 1017.4 1015.7
07 14.11 ЮВ 12 н/о н/о +22.3 +8.4 41 +24 +24 комфорт 1017.3 1015.6
09 14.11 Ю 12 н/о н/о +20.8 +9.7 49 +22 +22 комфорт 1018.1 1016.4
10 14.11 Ю 10 н/о н/о +19.6 +9.8 53 +20 +20 1019.1 1017.4
11 14.11 Ю 9 н/о н/о +18.3 +11.4 64 +18 +18 1020.2 1018.5
12 14.11 Ю 7 н/о н/о +17.5 +11.1 66 +17 +17 1021.3 1019.6
14 14.11 Ю 6 н/о н/о +16.7 +9.1 61 +16 +16 1021.2 1019.5
13 14.11 Ю 7 н/о н/о +17.0 +10.1 64 +16 +16 1021.5 1019.8
15 14.11 Ю 7 н/о н/о +16.5 +10.6 68 +15 +15 1020.7 1019.0
16 14.11 Ю 7 н/о н/о +16.2 +10.7 70 +15 +15 1020.4 1018.7
17 14.11 Ю 5 н/о н/о +15.4 +10.0 70 +14 +14 1020.5 1018.8
18 14.11 Ю 4 н/о н/о +14.6 +9.8 73 +13 +13 1020.6 1018.9
20 14.11 Ю 6 н/о н/о +15.2 +11.2 77 +14 +14 1021.6 1019.9
19 14.11 Ю 4 н/о н/о +14.0 +10.2 78 +13 +13 1020.9 1019.2
21 14.11 Ю 7 н/о н/о +16.8 +11.3 70 +16 +16 1022.3 1020.6
22 14.11 ЮВ 6 н/о н/о +18.3 +10.7 61 +18 +18 1022.8 1021.1
23 14.11 ЮВ 7 н/о н/о +19.5 +8.2 48 +20 +20 1023.0 1021.3
00 15.11 Ю 5 н/о н/о +20.9 +8.5 45 +22 +22 комфорт 1022.8 1021.1
02 15.11 Ю 5 н/о н/о +24.3 +6.6 32 +24 +24 комфорт 1021.8 1020.1
01 15.11 Ю 4 н/о н/о +23.1 +8.0 38 +24 +24 комфорт 1022.4 1020.7
03 15.11 ЮВ 7 н/о н/о +24.7 +6.9 32 +25 +25 комфорт 1021.1 1019.4
04 15.11 ЮВ 7 н/о н/о +25.8 +7.4 31 +26 +26 жарко 1020.3 1018.6
05 15.11 ЮВ 8 н/о н/о +26.7 +7.7 30 +27 +27 жарко 1019.5 1017.8
06 15.11 ЮВ 9 н/о н/о +25.8 +8.3 33 +26 +26 жарко 1019.2 1017.5
08 15.11 ЮВ 8 н/о н/о +24.0 +10.7 43 +25 +25 комфорт 1019.3 1017.6
07 15.11 ЮВ 9 н/о н/о +24.4 +11.0 43 +26 +26 жарко 1019.3 1017.6
09 15.11 Ю 7 н/о н/о +22.8 +7.8 38 +24 +24 комфорт 1019.9 1018.2
10 15.11 ЮВ 7 н/о н/о +19.8 +10.2 54 +21 +21 комфорт 1020.6 1018.9
11 15.11 ЮВ 7 н/о н/о +18.3 +11.1 63 +18 +18 1021.4 1019.7
12 15.11 Ю 5 н/о н/о +18.4 +10.8 61 +18 +18 1021.4 1019.7
14 15.11 ЮВ 8 н/о н/о +17.8 +9.7 59 +17 +17 1020.3 1018.6
13 15.11 ЮВ 10 н/о н/о +18.5 +10.3 59 +18 +18 1020.7 1019.0
15 15.11 ЮВ 7 н/о н/о +17.3 +9.7 61 +16 +16 1019.9 1018.2
16 15.11 З 1 н/о н/о +16.1 +8.1 59 +17 +17 1019.6 1017.9
17 15.11 З 1 н/о н/о +15.6 +8.8 64 +17 +17 1019.2 1017.5
18 15.11 Ю 4 н/о н/о +14.9 +7.7 62 +14 +14 1019.2 1017.5
20 15.11 С 1 н/о н/о +11.9 +6.6 70 +13 +13 1019.9 1018.2
19 15.11 СЗ 1 н/о н/о +12.9 +6.5 65 +13 +13 1019.5 1017.8
21 15.11 СВ 1 н/о н/о +17.5 +6.7 49 +19 +19 1020.2 1018.5
22 15.11 ЮВ 6 н/о н/о +20.9 +8.2 44 +22 +22 комфорт 1020.7 1019.0
23 15.11 ЮВ 6 н/о н/о +22.7 +10.2 45 +25 +25 комфорт 1021.0 1019.3
00 16.11 ЮВ 6 н/о н/о +23.9 +9.1 39 +25 +25 комфорт 1020.9 1019.2
02 16.11 ЮВ 8 н/о н/о +25.9 +1.9 21 +24 +24 комфорт 1020.1 1018.4
01 16.11 ЮВ 8 н/о н/о +25.9 +4.4 25 +25 +25 комфорт 1020.7 1019.0
03 16.11 ЮВ 10 н/о н/о +26.3 +2.9 22 +25 +25 комфорт 1019.6 1017.9
04 16.11 ЮВ 10 н/о н/о +26.1 +2.1 21 +25 +25 комфорт 1018.7 1017.0
05 16.11 ЮВ 10 н/о н/о +26.9 +2.7 21 +25 +25 комфорт 1018.3 1016.6
06 16.11 Ю 10 н/о н/о +27.4 -5.6 11 +24 +24 комфорт 1018.3 1016.6
08 16.11 Ю 10 н/о н/о +25.5 -2.1 16 +23 +23 комфорт 1018.9 1017.2
07 16.11 Ю 9 н/о н/о +26.8 -2.9 14 +24 +24 комфорт 1018.3 1016.6
09 16.11 Ю 8 н/о н/о +23.6 +2.4 25 +23 +23 комфорт 1019.8 1018.1
10 16.11 ЮВ 8 н/о н/о +20.5 +9.7 50 +22 +22 комфорт 1020.7 1019.0
11 16.11 Ю 7 н/о н/о +20.2 +8.2 46 +21 +21 комфорт 1021.2 1019.5
12 16.11 Ю 8 н/о н/о +19.5 +7.9 47 +20 +20 1021.9 1020.2
14 16.11 Ю 8 н/о н/о +17.1 +9.5 61 +16 +16 1021.5 1019.8
13 16.11 Ю 7 н/о н/о +18.1 +8.7 54 +17 +17 1022.0 1020.3
15 16.11 Ю 8 н/о н/о +16.3 +9.0 62 +15 +15 1021.1 1019.4
16 16.11 Ю 9 н/о н/о +15.8 +9.0 64 +14 +14 1020.2 1018.5
17 16.11 Ю 8 н/о н/о +15.5 +9.4 67 +14 +14 1020.0 1018.3
18 16.11 Ю 8 н/о н/о +14.5 +8.7 68 +12 +12 1019.9 1018.2
20 16.11 Ю 7 н/о н/о +13.9 +8.3 69 +12 +12 1020.4 1018.7
19 16.11 Ю 8 н/о н/о +14.0 +7.5 65 +12 +12 1020.0 1018.3
21 16.11 Ю 8 н/о н/о +15.1 +9.0 67 +13 +13 1021.1 1019.4
22 16.11 ЮВ 6 н/о н/о +16.5 +5.5 48 +15 +15 1021.5 1019.8
23 16.11 Ю 6 н/о н/о +18.1 +6.0 45 +18 +18 1021.7 1020.0
00 17.11 Ю 5 н/о н/о +19.3 +5.0 39 +20 +20 1021.2 1019.5
02 17.11 ЮВ 5 н/о н/о +24.2 +2.4 24 +23 +23 комфорт 1019.8 1018.1
01 17.11 ЮВ 5 н/о н/о +21.9 +4.0 31 +22 +22 комфорт 1020.9 1019.2
03 17.11 ЮВ 7 н/о н/о +26.3 +3.5 23 +25 +25 комфорт 1018.6 1016.9
04 17.11 ЮВ 7 н/о н/о +27.1 +3.6 22 +26 +26 жарко 1017.5 1015.8
05 17.11 ЮВ 8 н/о н/о +27.8 +3.5 21 +26 +26 жарко 1016.6 1014.9
06 17.11 ЮВ 9 н/о н/о +28.0 +4.3 22 +27 +27 жарко 1015.6 1013.9
08 17.11 ЮВ 10 н/о н/о +26.7 +5.1 25 +26 +26 жарко 1015.4 1013.7
07 17.11 ЮВ 8 н/о н/о +27.0 +6.9 28 +27 +27 жарко 1015.6 1013.9
09 17.11 ЮВ 9 н/о н/о +24.8 +6.1 30 +25 +25 комфорт 1015.8 1014.1
10 17.11 ЮВ 8 н/о н/о +23.2 +5.6 32 +24 +24 комфорт 1016.5 1014.8
11 17.11 Ю 6 н/о н/о +22.5 +6.7 36 +23 +23 комфорт 1017.0 1015.3
12 17.11 Ю 6 н/о н/о +22.6 +6.8 36 +23 +23 комфорт 1017.0 1015.3
14 17.11 ЮВ 4 н/о н/о +21.3 +3.0 30 +21 +21 комфорт 1016.4 1014.7
13 17.11 ЮВ 4 н/о н/о +21.9 +6.6 37 +23 +23 комфорт 1016.8 1015.1
15 17.11 ЮВ 5 н/о н/о +21.4 +1.7 27 +21 +21 комфорт 1015.8 1014.1
16 17.11 ЮВ 4 н/о н/о +20.8 +0.1 25 +21 +21 комфорт 1015.2 1013.5
17 17.11 ЮВ 5 н/о н/о +20.1 0.0 26 +20 +20 1014.7 1013.0
18 17.11 ЮВ 5 н/о н/о +20.0 -0.1 26 +20 +20 1014.7 1013.0
20 17.11 В 5 н/о н/о +19.1 -1.9 24 +19 +19 1015.1 1013.4
19 17.11 ЮВ 4 н/о н/о +18.8 -0.6 27 +19 +19 1014.7 1013.0

 

Местоположение метеостанции Port Augusta Arid Lands (Южная Австралия, Австралия): широта -32.52 долгота 137.72 высота над уровнем моря 14 м.

В архиве по умолчанию представлена погода в Port Augusta Arid Lands за последнюю неделю. Архивные данные за месяц целиком и за предыдущие месяцы, начиная с января 2011 года, Вы можете получить, выбрав интересующий диапазон дат из раскрывающегося списка и нажав кнопку "Ввод!".


*Определитесь, кто Вы:
робот инопланетянин человек

Внимание! Время в таблицах - всемирное. Для получения местного времени необходимо прибавить поправку, которая в Port Augusta Arid Lands равна 9.5 ч.

Смотрите также архив погоды в соседних городах и на ближайших метеорологических станциях:

Погода в Whyalla Airport (Южная Австралия, Австралия) (64 км)
Погода в Snowtown (Rayville Park) (Южная Австралия, Австралия) (148 км)
Погода в Kadina Aws (Южная Австралия, Австралия) (161 км)
Погода в Warburto Point (Южная Австралия, Австралия) (166 км)
Погода в Clare High School (Южная Австралия, Австралия) (166 км)
Погода в Yunta Airstrip (Южная Австралия, Австралия) (174 км)
Погода в Woomera Aerodrome (Южная Австралия, Австралия) (175 км)
Погода в Cleve Aerodrome (Южная Австралия, Австралия) (175 км)
Погода в Wudinna Aero (Южная Австралия, Австралия) (220 км)
Погода в Leigh Creek Airport (Южная Австралия, Австралия) (224 км)

Пояснения к столбцам:

Ветер - указаны скорость ветра в м/с - средняя за 10 мин, порывы в срок и между сроками (в фигурных скобках) и направление, откуда дует ветер: С - северный, СВ - северо-восточный, В - восточный, ЮВ - юго-восточный, Ю - южный, ЮЗ - юго-западный, З - западный, СЗ - северо-западный.
Видимость - горизонтальная дальность видимости в метрах или километрах. При видимости от 1 до 10 км при отсутствии осадков обычно наблюдается дымка, при ухудшении видимости до 1 км и менее - туман. В сухую погоду видимость может ухудшаться дымом, пылью или мглою.
Явления - указаны атмосферные явления, наблюдавшиеся в срок или в последний час перед сроком; фигурными скобками обозначены явления, наблюдавшиеся между сроками (за 1-3 часа до срока); квадратными скобками обозначены град или гололедные отложения с указанием их диаметра в мм.
Облачность - указаны через наклонную черту общая и нижняя облачность в баллах и высота нижней границы облаков в метрах; квадратными скобками обозначены формы облаков: Ci - перистые, Cs - перисто-слоистые, Cc - перисто-кучевые, Ac - высококучевые, As - высокослоистые, Sc - слоисто-кучевые, Ns - слоисто-дождевые, Cu - кучевые, Cb - кучево-дождевые. Подробнее классификацию облаков см. в Атласе облаков (PDF).
T - Температура воздуха - температура, измеренная на высоте 2 м над землей.
Td - Температура точки росы - температура, при понижении до которой содержащийся в воздухе водяной пар достигнет насыщения.
f - Относительная влажность воздуха - влажноcть воздуха, измеренная на высоте 2 м над землей.
Te - Эффективная температура - температура, которую ощущает одетый по сезону человек в тени. Характеристика душности погоды. При расчете учитывается влияние влажности воздуха и скорости ветра на теплоощущения человека.
Tes - Эффективная температура на солнце - температура, которую ощущает человек, с поправкой на солнечный нагрев. Характеристика знойности погоды. Зависит от высоты солнца над горизонтом, облачности и скорости ветра. Ночью, в пасмурную погоду, а также при ветре 12 м/с и более поправка равна нулю.
P - Атмосферное давление - приведенное к уровню моря атмосферное давление.
Po - Атмосферное давление - измеренное на уровне метеостанции атмосферное давление.
Tmin - Минимальная температура - минимум температуры воздуха на высоте 2 м над землей.
Tmax - Максимальная температура - максимум температуры воздуха на высоте 2 м над землей.
R - Количество осадков - Количество выпавших осадков за период времени, мм. При наведении курсора мыши на число - период времени, за который выпало указанное количество осадков.
R24 - Количество осадков - Количество выпавших осадков за 24 часа, мм.
S - Снежный покров - Высота снежного покрова, см. При наведении курсора мыши на число - состояние снежного покрова и степень покрытия местности в баллах.